Location: Chippewa Lake
(41.0698°N, 81.9010°W)
Time: 23:50:58
(UTC+00:00)

Cosmos 1758 - Pass Details

Date: 09 May 2021
Orbit: 538 x 563 km, 82.5° (Epoch: 24 June)

Event Time Altitude Azimuth Distance (km) Brightness Sun altitude
Rises 07:20:47 0° 353° (N) 2,764 7.7 -25.5°
Reaches altitude 10° 07:22:59 10° 356° (N) 1,862 6.7 -25.3°
Enters shadow 07:26:41 67° 32° (NNE) 611 3.6 -24.9°
